{"data":{"norad_id":48212,"epoch":"2026-05-25T03:23:51.744768Z","epoch_age_seconds":59880,"freshness":"FRESH","line1":"1 48212U 21031C   26145.14157112  .00003172  00000+0  10359-2 0  9996","line2":"2 48212  87.8968 292.5226 0219867 333.0772  25.9144 14.25532062245760","mean_motion":14.25532062,"eccentricity":0.0219867,"inclination_deg":87.8968,"raan_deg":292.5226,"arg_perigee_deg":333.0772,"mean_anomaly_deg":25.9144,"bstar":0.0010359,"rev_number":24576,"period_min":101.014914949,"perigee_km":648.73337885159,"apogee_km":964.6752805797,"semimajor_km":7184.8413297156,"source":"CELESTRAK","updated_at":"2026-05-25T13:38:22.395996Z"}}